Regional Weather Roundup
Issued by NWS

Home | Current Version | Previous Version | Graphics & Text | Print | Product List | Glossary On
Versions: 1 2 3 4 5 6 7 8 9 10 11 12 13 14 15 16 17 18 19 20 21 22 23 24 25 26 27 28 29 30 31 32 33 34 35 36 37 38 39 40 41 42 43 44 45 46 47 48 49 50
000
ASUS43 KFSD 182110
RWRSD

WEATHER ROUNDUP FOR SOUTH DAKOTA
NATIONAL WEATHER SERVICE SIOUX FALLS SD
300 PM CST SAT FEB 18 2017

NOTE: "FAIR" INDICATES FEW OR NO CLOUDS BELOW 12,000 FEET WITH NO
SIGNIFICANT WEATHER AND/OR OBSTRUCTIONS TO VISIBILITY.


SDZ001>005-009-010-012>017-182200-
NORTHWEST AND NORTH CENTRAL SOUTH DAKOTA

CITY           SKY/WX    TMP DP  RH WIND       PRES   REMARKS
BUFFALO          N/A     61  35  37 SW20      29.49R
FAITH            N/A     58  33  39 SE17      29.58F
MOBRIDGE       MOSUNNY   43  31  62 SE13      29.63S
$$

SDZ012>016-024>037-041>051-057-063-072>074-182200-
SOUTHWEST AND SOUTH CENTRAL SOUTH DAKOTA

CITY           SKY/WX    TMP DP  RH WIND       PRES   REMARKS
RAPID CTY ARPT SUNNY     65  31  28 W6G22     29.58F
PIERRE         SUNNY     61  33  35 SE16      29.65F
CUSTER         SUNNY     55  27  34 SW15G25   29.64F
ELLSWORTH AFB  SUNNY     67  31  27 W13       29.58S
PHILIP         CLOUDY    64  29  26 S17G25    29.61F
PINE RIDGE     SUNNY     53  33  46 S9        29.64F
SPEARFISH      FAIR      63  32  31 W17       29.59R
WINNER         FAIR      65  30  27 S21G28    29.70F
$$

SDZ004>011-016>023-039-040-182200-
NORTHEAST SOUTH DAKOTA

CITY           SKY/WX    TMP DP  RH WIND       PRES   REMARKS
ABERDEEN       PTSUNNY   46  37  71 SE6       29.74F
WATERTOWN      CLOUDY    48  40  73 S5        29.75S
BROOKINGS      CLOUDY    56  38  50 SE7       29.75F
SISSETON         N/A     53  40  61 SW6       29.74F
$$

SDZ017-020-022-023-036>040-048>070-182200-
SOUTHEAST SOUTH DAKOTA

CITY           SKY/WX    TMP DP  RH WIND       PRES   REMARKS
SIOUX FALLS    MOSUNNY   59  41  51 SE8       29.76F
HURON          MOSUNNY   54  39  57 SE7       29.73F
CHAMBERLAIN    SUNNY     61  39  44 SE9       29.71F
MITCHELL       MOSUNNY   60  39  45 S9        29.75F
YANKTON        SUNNY     61  34  36 SE12      29.75F
$$

ABBREVIATIONS USED IN REMARKS
   TC - TEMPERATURE IN CELSIUS
  WCI - WIND CHILL INDEX
   HX - HEAT INDEX
  VSB - VISIBILITY





USA.gov is the U.S. government's official web portal to all federal, state and local government web resources and services.